Dryland Event Management

Virtual Series: Momentum Tankwa Trek

Presented by:

Cape Multisport Club


Momentum Tankwa Trek (FULL - Virtual) Results

PRELIMINARY

Day 1

Overall ID Surname Name Gender Distance Time Ave Speed Ave Cadence Ave Watts
1 13118726 LOUW SAREL M 72 02:10:34 33.2 74 327
2 537621 DAVEL JACO M 72 02:14:36 32.2 80 290
3 1738866 [WHITE STONE CYCLES] MURRAY CRAIB M 72 02:15:45 31.9 78 290
4 3837288 PETERSEN KYLE M 72 02:16:55 31.6 63 325
5 38436113 MENEZES ADF M 72 02:23:26 30.2 0 261
6 6831803 DIPPENAAR ALWYN M 72 02:23:58 30.1 95 267
7 3592020 OBERHOLZER BRENDAN M 72 02:25:24 29.8 81 249
8 13273357 BOONZAIER JOHAN M 72 02:25:31 29.8 72 256
9 657302 BAKER MIKE M 72 02:25:40 29.7 75 249
10 17732269 ROUX PIERRE M 72 02:25:47 29.7 0 249
11 174928 IRVINE DARRYL M 72 02:27:36 29.3 76 251
12 4107832 HALBWACHS AURéLIE F 72 02:28:06 29.2 84 210
13 11552366 SMITH LURICH M 72 02:30:09 28.8 88 264
14 3677588 KNIGHT - CRANX CHRIS M 72 02:30:10 28.8 73 249
15 3443994 DE SWARDT CHRIS M 72 02:31:02 28.7 83 256
16 1521585 COETZEE KRIS M 72 02:32:13 28.5 87 295
17 1177800 DIESEL RICK M 72 02:33:04 28.3 79 296
18 199565 HEPBURN DERRICK M 72 02:33:07 28.3 85 231
19 6518613 DU PLESSIS JACQUES M 72 02:34:42 28 85 273
20 2243677 WESSELS WYNAND M 72 02:35:34 27.8 83 225
21 44581 HOUNSOM CRAIG M 72 02:35:55 27.8 0 249
22 19616732 THEUNISSEN 🚴‍♀️ KINDY F 72 02:36:10 27.7 89 241
23 5619298 VAN DER LINDE MARISA F 72 02:37:34 27.5 80 217
24 10996551 S A N T A N A M A R I O M 72 02:38:15 27.4 88 258
25 8302475 BRAND JACO M 72 02:41:02 26.9 85 233
26 2749564 JOUBERT JACQUES M 72 02:41:14 26.9 80 256
27 12764681 DE WET JOHANN M 72 02:41:18 26.9 82 240
28 1787797 DE WITT CLINTON M 72 02:41:28 26.8 80 210
29 5340944 TESNAAR WILHELM M 72 02:43:37 26.5 0 236
30 6445231 O BRIEN JASON M 72 02:48:09 25.8 0 0
31 732519 SANDS REBECCA F 72 02:48:41 25.7 76 169
32 1375395 KEET RAYMOND M 72 02:48:48 25.7 0 229
33 3815937 TILEY STEPHEN M 72 02:49:54 25.5 71 211
34 29811530 ROUHOTAS CHANTEL F 72 02:50:12 25.4 84 164
35 7497976 KERNES CAMILLA F 72 02:51:24 25.3 74 184
36 7000813 VERCUEIL MARK M 72 02:53:52 24.9 0 244
37 3453662 SHALES GEMMA F 72 02:54:30 24.8 57 160
38 1189436 RANSOME TREVOR M 72 02:56:14 24.6 83 234
39 10720927 WYNNE KEVIN M 72 02:56:27 24.5 77 188
40 2013996 FARMER MARK M 72 02:56:32 24.5 75 200
41 19599534 GROBLER MORNE M 72 02:56:39 24.5 78 201
42 4534271 JORDAAN-KOLBE SALOMIE F 72 02:57:45 24.4 0 176
43 21163767 POSON CLINTON M 72 02:58:00 24.3 85 172
44 8505905 DE WITT CARLA F 72 02:59:28 24.1 76 155
45 5529429 LUTZ MARIETJIE F 72 03:01:36 23.9 86 184
46 28246701 BREARLEY KIM F 72 03:01:43 23.8 84 144
47 3373726 DU TOIT HENNIE M 72 03:02:20 23.8 78 203
48 4048548 BLOEMFONTEIN GIGGELTJIE VAN F 72 03:02:46 23.7 71 124
49 30879288 STRAUSS JOHAN M 72 03:03:26 23.6 66 227
50 2938704 VAN DEN BERGH NICO M 72 03:03:47 23.6 75 187
51 18323884 WYNNE GORDON M 72 03:04:26 23.5 80 192
52 8300355 GREYLING BAREND M 72 03:04:30 23.5 87 203
53 4393056 SMEDEMA ELMARIE F 72 03:05:31 23.3 56 125
54 12912170 VENTER ETIENNE M 72 03:07:03 23.2 66 210
55 1071409 KLEYNSCHELDT WALTER M 72 03:07:52 23.1 80 192
56 4761043 BLEWETT ANNE F 72 03:10:09 22.8 81 162
57 19930098 MAREE JUSTIN M 72 03:14:47 22.2 0 185
58 1768159 AKERS JACK M 72 03:16:12 22.1 82 178
59 18600539 ROBERTSON SAM M 72 03:17:47 21.9 72 195
60 27462494 NASH BRANDON M 72 03:18:17 21.8 0 0
61 12742923 SMITH MICHAEL M 72 03:18:23 21.8 0 192
62 6677914 FERNIE JED M 72 03:19:26 21.7 78 173
63 2944388 PRINSLOO JACO M 72 03:19:49 21.7 0 205
64 521116 FUNDARO RYAN M 72 03:21:58 21.4 66 159
65 13332833 CLAASE NICO M 72 03:25:40 21.1 0 160
66 614546 MANDLA KING M 72 03:26:17 21 63 141
67 7748721 WRIGHTSON PHILIP M 72 03:32:07 20.4 0 139
68 16035472 BEYTELL 🚵‍♂️ 🚵‍♀️ LOURENS M 72 03:33:51 20.3 82 174
69 12112415 BEHNE RICHARD M 72 03:38:00 19.9 0 0
70 30882608 HENNOP STEF M 72 03:39:15 19.8 0 134
71 9231 BRYANT STEVE M 72 03:39:22 19.7 77 153
72 27973675 J VAN RENSBURG SARAH-JANE F 72 03:56:05 18.3 0 119
73 17642327 KRUGER DORET F 72 03:57:30 18.2 0 107
74 3029739 YORK ELMA F 72 04:05:36 17.6 72 111
75 7910376 LOS OENE M 72 04:08:18 17.4 0 122

Day 2

Overall ID Surname Name Gender Distance Time Ave Speed Ave Cadence Ave Watts
1 1738866 [WHITE STONE CYCLES] MURRAY CRAIB M 89 02:55:33 30.4 76 300
2 537621 DAVEL JACO M 89 02:56:37 30.3 82 284
3 13118726 LOUW SAREL M 89 03:09:00 28.3 69 289
4 19616732 THEUNISSEN 🚴‍♀️ KINDY F 89 03:11:18 27.9 86 283
5 1631408 KAVANAGH MARK M 89 03:12:01 27.8 78 246
6 3837288 PETERSEN KYLE M 89 03:15:31 27.3 62 296
7 12764681 DE WET JOHANN M 89 03:20:47 26.6 86 273
8 174928 IRVINE DARRYL M 89 03:24:10 26.2 77 239
9 10996551 S A N T A N A M A R I O M 89 03:25:11 26 89 256
10 11552366 SMITH LURICH M 89 03:26:05 25.9 84 261
11 17732269 ROUX PIERRE M 89 03:27:01 25.8 0 235
12 653507 VZ JARRAD M 89 03:27:38 25.7 77 228
13 657302 BAKER MIKE M 89 03:27:43 25.7 79 240
14 4107832 HALBWACHS AURéLIE F 89 03:28:55 25.6 80 199
15 38436113 MENEZES ADF M 89 03:29:37 25.5 0 238
16 3443994 DE SWARDT CHRIS M 89 03:31:26 25.3 0 246
17 13273357 BOONZAIER JOHAN M 89 03:31:59 25.2 67 236
18 5619298 VAN DER LINDE MARISA F 89 03:33:41 25 80 215
19 44581 HOUNSOM CRAIG M 89 03:33:46 25 0 218
20 2749564 JOUBERT JACQUES M 89 03:34:51 24.9 80 265
21 199565 HEPBURN DERRICK M 89 03:35:11 24.8 83 218
22 1521585 COETZEE KRIS M 89 03:35:56 24.7 84 280
23 13180018 ENGELS NAUDE M 89 03:38:52 24.4 0 233
24 3527982 ROSIN DEAN M 89 03:40:38 24.2 74 208
25 2243677 WESSELS WYNAND M 89 03:42:48 24 77 207
26 1177800 DIESEL RICK M 89 03:43:23 23.9 80 266
27 5340944 TESNAAR WILHELM M 89 03:44:05 23.8 0 240
28 6831803 DIPPENAAR ALWYN M 89 03:45:15 23.7 92 218
29 6518613 DU PLESSIS JACQUES M 89 03:49:26 23.3 82 243
30 3677588 KNIGHT - CRANX CHRIS M 89 03:54:19 22.8 72 203
31 3453662 SHALES GEMMA F 89 03:59:05 22.3 55 158
32 732519 SANDS REBECCA F 89 03:59:08 22.3 73 168
33 8302475 BRAND JACO M 89 04:01:31 22.1 83 205
34 7497976 KERNES CAMILLA F 89 04:02:19 22.1 67 175
35 1189436 RANSOME TREVOR M 89 04:04:01 21.9 75 234
36 4761043 BLEWETT ANNE F 89 04:05:40 21.7 70 153
37 3815937 TILEY STEPHEN M 89 04:06:49 21.6 72 199
38 8505905 DE WITT CARLA F 89 04:11:30 21.2 74 148
39 521116 FUNDARO RYAN M 89 04:12:06 21.2 68 180
40 1375395 KEET RAYMOND M 89 04:12:38 21.2 0 216
41 4048548 BLOEMFONTEIN GIGGELTJIE VAN F 89 04:14:02 21 70 119
42 19930098 MAREE JUSTIN M 89 04:15:35 20.9 0 187
43 21163767 POSON CLINTON M 89 04:17:43 20.7 84 157
44 3373726 DU TOIT HENNIE M 89 04:19:54 20.6 76 196
45 18323884 WYNNE GORDON M 89 04:20:38 20.5 79 187
46 8300355 GREYLING BAREND M 89 04:21:46 20.4 81 184
47 6445231 O BRIEN JASON M 89 04:22:49 20.3 0 0
48 5529429 LUTZ MARIETJIE F 89 04:27:55 19.9 77 169
49 1071409 KLEYNSCHELDT WALTER M 89 04:31:35 19.7 76 181
50 19599534 GROBLER MORNE M 89 04:32:20 19.6 71 170
51 28246701 BREARLEY KIM F 89 04:34:22 19.5 77 127
52 4534271 JORDAAN-KOLBE SALOMIE F 89 04:35:24 19.4 0 153
53 2938704 VAN DEN BERGH NICO M 89 04:35:32 19.4 76 164
54 27462494 NASH BRANDON M 89 04:45:50 18.7 0 0
55 18600539 ROBERTSON SAM M 89 04:46:40 18.6 74 178
56 12742923 SMITH MICHAEL M 89 04:47:11 18.6 0 188
57 7000813 VERCUEIL MARK M 89 04:47:30 18.6 0 203
58 7910376 LOS OENE M 89 04:58:31 17.9 0 144
59 1768159 AKERS JACK M 89 05:01:16 17.7 80 157
60 30879288 STRAUSS JOHAN M 89 05:05:13 17.5 58 179
61 6677914 FERNIE JED M 89 05:14:28 17 74 148
62 4393056 SMEDEMA ELMARIE F 89 05:24:09 16.5 47 102
63 30882608 HENNOP STEF M 89 05:29:54 16.2 0 123
64 12112415 BEHNE RICHARD M 89 05:54:29 15.1 0 0
65 614546 MANDLA KING M 89 06:01:06 14.8 59 116
66 14246998 MEINKE CLAUS M 89 06:32:14 13.6 68 156

Day 3

Overall ID Surname Name Gender Distance Time Ave Speed Ave Cadence Ave Watts
1 537621 DAVEL JACO M 23 00:37:22 36.2 85 303
2 13118726 LOUW SAREL M 23 00:37:27 36.1 74 345
3 1738866 [WHITE STONE CYCLES] MURRAY CRAIB M 23 00:37:35 36 82 320
4 5340944 TESNAAR WILHELM M 23 00:37:36 35.9 0 322
5 3847417 SMOUSE NOEL M 23 00:37:37 35.9 97 283
6 1521585 COETZEE KRIS M 23 00:37:45 35.8 88 361
7 38436113 MENEZES ADF M 23 00:37:48 35.8 0 308
8 3837288 PETERSEN KYLE M 23 00:37:51 35.7 68 348
9 657302 BAKER MIKE M 23 00:38:25 35.2 79 307
10 12764681 DE WET JOHANN M 23 00:38:26 35.2 94 322
11 11552366 SMITH LURICH M 23 00:38:26 35.2 87 311
12 3677588 KNIGHT - CRANX CHRIS M 23 00:38:29 35.1 73 292
13 732519 SANDS REBECCA F 23 00:38:29 35.1 81 243
14 6831803 DIPPENAAR ALWYN M 23 00:38:33 35.1 97 274
15 17732269 ROUX PIERRE M 23 00:38:37 35 0 297
16 13273357 BOONZAIER JOHAN M 23 00:40:51 33.1 74 277
17 10996551 S A N T A N A M A R I O M 23 00:41:09 32.8 92 292
18 199565 HEPBURN DERRICK M 23 00:41:40 32.4 84 259
19 3592020 OBERHOLZER BRENDAN M 23 00:42:12 32 78 264
20 12742923 SMITH MICHAEL M 23 00:42:52 31.5 0 269
21 8302475 BRAND JACO M 23 00:42:53 31.5 83 271
22 4107832 HALBWACHS AURéLIE F 23 00:42:54 31.5 85 222
23 3443994 DE SWARDT CHRIS M 23 00:43:22 31.2 91 267
24 44581 HOUNSOM CRAIG M 23 00:43:25 31.1 0 274
25 2243677 WESSELS WYNAND M 23 00:43:44 30.9 86 243
26 174928 IRVINE DARRYL M 23 00:43:54 30.8 77 243
27 2749564 JOUBERT JACQUES M 23 00:43:57 30.8 83 294
28 18600539 ROBERTSON SAM M 23 00:44:15 30.5 83 262
29 29811530 ROUHOTAS CHANTEL F 23 00:44:37 30.3 86 195
30 1189436 RANSOME TREVOR M 23 00:45:18 29.8 80 273
31 3815937 TILEY STEPHEN M 23 00:45:29 29.7 75 238
32 8300355 GREYLING BAREND M 23 00:45:36 29.6 79 253
33 6518613 DU PLESSIS JACQUES M 23 00:45:47 29.5 86 267
34 3373726 DU TOIT HENNIE M 23 00:46:28 29.1 85 251
35 2013996 FARMER MARK M 23 00:46:32 29 78 236
36 18323884 WYNNE GORDON M 23 00:46:35 29 79 238
37 521116 FUNDARO RYAN M 23 00:46:58 28.8 75 202
38 33253491 DU CHENNE CHANTAL F 23 00:46:59 28.8 0 195
39 27462494 NASH BRANDON M 23 00:47:03 28.7 0 0
40 10720927 WYNNE KEVIN M 23 00:47:04 28.7 78 216
41 1375395 KEET RAYMOND M 23 00:47:08 28.7 0 277
42 1177800 DIESEL RICK M 23 00:47:11 28.6 76 275
43 2938704 VAN DEN BERGH NICO M 23 00:47:32 28.4 80 213
44 19599534 GROBLER MORNE M 23 00:48:06 28.1 83 213
45 3847417 SMOUSE NOEL M 23 00:48:26 27.9 81 196
46 3453662 SHALES GEMMA F 23 00:48:55 27.6 92 169
47 7000813 VERCUEIL MARK M 23 00:49:27 27.3 0 251
48 6445231 O BRIEN JASON M 23 00:49:28 27.3 0 0
49 8505905 DE WITT CARLA F 23 00:49:48 27.1 76 167
50 19930098 MAREE JUSTIN M 23 00:49:55 27.1 0 210
51 5619298 VAN DER LINDE MARISA F 23 00:49:59 27 80 188
52 7497976 KERNES CAMILLA F 23 00:50:13 26.9 73 182
53 1768159 AKERS JACK M 23 00:50:19 26.9 84 202
54 4534271 JORDAAN-KOLBE SALOMIE F 23 00:50:24 26.8 0 179
55 4761043 BLEWETT ANNE F 23 00:50:55 26.5 72 156
56 2944388 PRINSLOO JACO M 23 00:51:02 26.5 0 231
57 21163767 POSON CLINTON M 23 00:51:24 26.3 85 176
58 1071409 KLEYNSCHELDT WALTER M 23 00:51:29 26.3 87 215
59 5529429 LUTZ MARIETJIE F 23 00:51:52 26.1 85 185
60 12112415 BEHNE RICHARD M 23 00:52:14 25.9 94 230
61 30879288 STRAUSS JOHAN M 23 00:52:47 25.6 70 233
62 19616732 THEUNISSEN 🚴‍♀️ KINDY F 23 00:52:51 25.6 92 186
63 2596994 STRYDOM WYNAND M 23 00:54:11 24.9 95 209
64 28246701 BREARLEY KIM F 23 00:54:20 24.9 87 139
65 6677914 FERNIE JED M 23 00:54:29 24.8 84 186
66 9231 BRYANT STEVE M 23 00:56:55 23.7 86 179
67 30882608 HENNOP STEF M 23 00:57:24 23.5 0 156
68 27973675 J VAN RENSBURG SARAH-JANE F 23 00:57:53 23.4 0 142
69 4048548 BLOEMFONTEIN GIGGELTJIE VAN F 23 00:58:30 23.1 75 107
70 4393056 SMEDEMA ELMARIE F 23 00:58:56 22.9 53 107
71 22904230 KOLBE LUKAS M 23 00:59:10 22.8 84 169
72 14246998 MEINKE CLAUS M 23 01:04:23 21 75 180
73 614546 MANDLA KING M 23 01:04:27 21 64 122
74 7910376 LOS OENE M 23 01:05:52 20.5 0 134

Day 4

Overall ID Surname Name Gender Distance Time Ave Speed Ave Cadence Ave Watts
1 13118726 LOUW SAREL M 69 01:53:48 36.4 74 338
2 1738866 [WHITE STONE CYCLES] MURRAY CRAIB M 69 01:57:24 35.3 82 304
3 38436113 MENEZES ADF M 69 01:57:34 35.2 0 294
4 537621 DAVEL JACO M 69 01:58:14 35 84 291
5 3847417 SMOUSE NOEL M 69 01:59:47 34.6 99 273
6 3837288 PETERSEN KYLE M 69 02:00:25 34.4 64 327
7 657302 BAKER MIKE M 69 02:01:25 34.1 72 281
8 12764681 DE WET JOHANN M 69 02:01:52 34 94 299
9 1521585 COETZEE KRIS M 69 02:01:59 33.9 83 334
10 11552366 SMITH LURICH M 69 02:05:19 33 88 282
11 10996551 S A N T A N A M A R I O M 69 02:06:57 32.6 87 282
12 13273357 BOONZAIER JOHAN M 69 02:08:10 32.3 71 264
13 3677588 KNIGHT - CRANX CHRIS M 69 02:08:21 32.2 77 261
14 17732269 ROUX PIERRE M 69 02:09:26 32 0 252
15 6831803 DIPPENAAR ALWYN M 69 02:10:11 31.8 92 240
16 2749564 JOUBERT JACQUES M 69 02:10:49 31.6 84 295
17 4107832 HALBWACHS AURéLIE F 69 02:11:48 31.4 82 214
18 13180018 ENGELS NAUDE M 69 02:12:15 31.3 0 252
19 2243677 WESSELS WYNAND M 69 02:16:18 30.4 76 229
20 3592020 OBERHOLZER BRENDAN M 69 02:16:32 30.3 79 230
21 199565 HEPBURN DERRICK M 69 02:18:10 30 85 223
22 5340944 TESNAAR WILHELM M 69 02:18:56 29.8 0 250
23 8302475 BRAND JACO M 69 02:21:56 29.2 82 237
24 1189436 RANSOME TREVOR M 69 02:22:20 29.1 81 258
25 5619298 VAN DER LINDE MARISA F 69 02:22:39 29 80 213
26 33253491 DU CHENNE CHANTAL F 69 02:23:22 28.9 0 188
27 6518613 DU PLESSIS JACQUES M 69 02:23:38 28.8 84 251
28 1177800 DIESEL RICK M 69 02:23:39 28.8 79 226
29 732519 SANDS REBECCA F 69 02:24:35 28.6 78 179
30 521116 FUNDARO RYAN M 69 02:24:36 28.6 72 205
31 4761043 BLEWETT ANNE F 69 02:27:26 28.1 75 168
32 19616732 THEUNISSEN 🚴‍♀️ KINDY F 69 02:30:10 27.6 82 205
33 3815937 TILEY STEPHEN M 69 02:31:08 27.4 74 203
34 7497976 KERNES CAMILLA F 69 02:31:14 27.4 74 183
35 18600539 ROBERTSON SAM M 69 02:31:51 27.3 80 209
36 12742923 SMITH MICHAEL M 69 02:32:22 27.2 0 203
37 27462494 NASH BRANDON M 69 02:32:31 27.1 62 259
38 19599534 GROBLER MORNE M 69 02:32:53 27.1 78 202
39 4534271 JORDAAN-KOLBE SALOMIE F 69 02:33:53 26.9 0 176
40 2938704 VAN DEN BERGH NICO M 69 02:34:40 26.8 76 196
41 3373726 DU TOIT HENNIE M 69 02:35:29 26.6 84 216
42 4048548 BLOEMFONTEIN GIGGELTJIE VAN F 69 02:35:31 26.6 76 131
43 18323884 WYNNE GORDON M 69 02:35:51 26.6 77 198
44 8505905 DE WITT CARLA F 69 02:35:53 26.6 75 157
45 5529429 LUTZ MARIETJIE F 69 02:36:11 26.5 80 184
46 7000813 VERCUEIL MARK M 69 02:37:34 26.3 0 234
47 6445231 O BRIEN JASON M 69 02:37:34 26.3 0 0
48 30879288 STRAUSS JOHAN M 69 02:38:18 26.1 73 233
49 4393056 SMEDEMA ELMARIE F 69 02:38:21 26.1 61 127
50 3453662 SHALES GEMMA F 69 02:38:24 26.1 90 149
51 1071409 KLEYNSCHELDT WALTER M 69 02:39:23 26 84 203
52 27973675 J VAN RENSBURG SARAH-JANE F 69 02:39:38 25.9 0 174
53 28246701 BREARLEY KIM F 69 02:40:12 25.8 86 142
54 19930098 MAREE JUSTIN M 69 02:40:28 25.8 0 187
55 1768159 AKERS JACK M 69 02:40:30 25.8 81 187
56 2944388 PRINSLOO JACO M 69 02:41:05 25.7 0 213
57 21163767 POSON CLINTON M 69 02:45:12 25.1 81 162
58 1375395 KEET RAYMOND M 69 02:47:02 24.8 0 220
59 8300355 GREYLING BAREND M 69 02:51:09 24.2 79 179
60 12112415 BEHNE RICHARD M 69 02:52:52 23.9 87 202
61 2596994 STRYDOM WYNAND M 69 02:58:43 23.2 90 190
62 6677914 FERNIE JED M 69 03:01:55 22.8 77 157
63 7910376 LOS OENE M 69 03:02:40 22.7 0 144
64 30882608 HENNOP STEF M 69 03:08:09 22 0 137
65 14246998 MEINKE CLAUS M 69 03:30:20 19.7 77 174

OVERALL

Overall ID Surname Name Gender Distance Time Ave Speed Ave Cadence Ave Watts
1 1738866 [WHITE STONE CYCLES] MURRAY CRAIB M 253 07:46:17 32.5 80 304
2 537621 DAVEL JACO M 253 07:46:49 32.5 83 292
3 13118726 LOUW SAREL M 253 07:50:49 32.2 73 325
4 3837288 PETERSEN KYLE M 253 08:10:42 30.9 64 324
5 38436113 MENEZES ADF M 253 08:28:25 29.8 0 275
6 657302 BAKER MIKE M 253 08:33:13 29.5 76 269
7 11552366 SMITH LURICH M 253 08:39:59 29.2 87 280
8 17732269 ROUX PIERRE M 253 08:40:51 29.1 0 258
9 12764681 DE WET JOHANN M 253 08:42:23 29 89 284
10 13273357 BOONZAIER JOHAN M 253 08:46:31 28.8 71 258
11 1521585 COETZEE KRIS M 253 08:47:53 28.7 86 318
12 10996551 S A N T A N A M A R I O M 253 08:51:32 28.5 89 272
13 4107832 HALBWACHS AURéLIE F 253 08:51:43 28.5 83 211
14 6831803 DIPPENAAR ALWYN M 253 08:57:57 28.2 94 250
15 199565 HEPBURN DERRICK M 253 09:08:08 27.7 84 233
16 19616732 THEUNISSEN 🚴‍♀️ KINDY F 253 09:10:29 27.5 87 229
17 2749564 JOUBERT JACQUES M 253 09:10:51 27.5 82 278
18 3677588 KNIGHT - CRANX CHRIS M 253 09:11:19 27.5 74 251
19 2243677 WESSELS WYNAND M 253 09:18:24 27.2 81 226
20 5619298 VAN DER LINDE MARISA F 253 09:23:53 26.9 80 208
21 5340944 TESNAAR WILHELM M 253 09:24:14 26.9 0 262
22 1177800 DIESEL RICK M 253 09:27:17 26.7 79 266
23 6518613 DU PLESSIS JACQUES M 253 09:33:33 26.4 84 259
24 8302475 BRAND JACO M 253 09:47:22 25.8 83 237
25 732519 SANDS REBECCA F 253 09:50:53 25.7 77 190
26 1189436 RANSOME TREVOR M 253 10:07:53 24.9 80 250
27 3815937 TILEY STEPHEN M 253 10:13:20 24.7 73 213
28 7497976 KERNES CAMILLA F 253 10:15:10 24.7 72 181
29 3453662 SHALES GEMMA F 253 10:20:54 24.4 74 159
30 4761043 BLEWETT ANNE F 253 10:34:10 23.9 75 160
31 1375395 KEET RAYMOND M 253 10:35:36 23.9 0 236
32 8505905 DE WITT CARLA F 253 10:36:39 23.8 75 157
33 6445231 O BRIEN JASON M 253 10:38:00 23.8 0 0
34 3373726 DU TOIT HENNIE M 253 10:44:11 23.5 81 217
35 521116 FUNDARO RYAN M 253 10:45:38 23.5 70 187
36 18323884 WYNNE GORDON M 253 10:47:30 23.4 79 204
37 19599534 GROBLER MORNE M 253 10:49:58 23.3 78 197
38 4048548 BLOEMFONTEIN GIGGELTJIE VAN F 253 10:50:49 23.3 73 120
39 21163767 POSON CLINTON M 253 10:52:19 23.2 84 167
40 4534271 JORDAAN-KOLBE SALOMIE F 253 10:57:26 23.1 0 171
41 5529429 LUTZ MARIETJIE F 253 10:57:34 23.1 82 181
42 19930098 MAREE JUSTIN M 253 11:00:45 23 0 192
43 2938704 VAN DEN BERGH NICO M 253 11:01:31 22.9 77 190
44 8300355 GREYLING BAREND M 253 11:03:01 22.9 82 205
45 7000813 VERCUEIL MARK M 253 11:08:23 22.7 0 233
46 1071409 KLEYNSCHELDT WALTER M 253 11:10:19 22.6 82 198
47 28246701 BREARLEY KIM F 253 11:10:37 22.6 84 138
48 18600539 ROBERTSON SAM M 253 11:20:33 22.3 77 211
49 12742923 SMITH MICHAEL M 253 11:20:48 22.3 0 213
50 27462494 NASH BRANDON M 253 11:23:41 22.2 16 65
51 30879288 STRAUSS JOHAN M 253 11:39:44 21.7 67 218
52 1768159 AKERS JACK M 253 11:48:17 21.4 82 181
53 4393056 SMEDEMA ELMARIE F 253 12:06:57 20.9 54 115
54 6677914 FERNIE JED M 253 12:30:18 20.2 78 166
55 30882608 HENNOP STEF M 253 13:14:42 19.1 0 138
56 7910376 LOS OENE M 253 13:15:21 19.1 0 136
57 12112415 BEHNE RICHARD M 253 13:17:35 19 45 108
58 174928 IRVINE DARRYL M 184 06:35:40 27.9 77 244
59 3443994 DE SWARDT CHRIS M 184 06:45:50 27.2 58 256
60 44581 HOUNSOM CRAIG M 184 06:53:06 26.7 0 247
61 614546 MANDLA KING M 184 10:31:50 17.5 62 126
62 14246998 MEINKE CLAUS M 181 11:06:57 16.2 73 170
63 3592020 OBERHOLZER BRENDAN M 164 05:24:08 30.3 79 248
64 2944388 PRINSLOO JACO M 164 06:51:56 23.8 0 216
65 27973675 J VAN RENSBURG SARAH-JANE F 164 07:33:36 21.7 0 145
66 13180018 ENGELS NAUDE M 158 05:51:07 27 0 243
67 3847417 SMOUSE NOEL M 114 03:25:50 33.2 92 251
68 29811530 ROUHOTAS CHANTEL F 95 03:34:49 26.5 85 180
69 2013996 FARMER MARK M 95 03:43:04 25.5 77 218
70 10720927 WYNNE KEVIN M 95 03:43:31 25.4 78 202
71 9231 BRYANT STEVE M 95 04:36:17 20.6 82 166
72 33253491 DU CHENNE CHANTAL F 92 03:10:21 28.8 0 192
73 2596994 STRYDOM WYNAND M 92 03:52:54 23.6 93 200
74 1631408 KAVANAGH MARK M 89 03:12:01 27.8 78 246
75 653507 VZ JARRAD M 89 03:27:38 25.7 77 228
76 3527982 ROSIN DEAN M 89 03:40:38 24.2 74 208
77 1787797 DE WITT CLINTON M 72 02:41:28 26.8 80 210
78 12912170 VENTER ETIENNE M 72 03:07:03 23.2 66 210
79 13332833 CLAASE NICO M 72 03:25:40 21.1 0 160
80 7748721 WRIGHTSON PHILIP M 72 03:32:07 20.4 0 139
81 16035472 BEYTELL 🚵‍♂️ 🚵‍♀️ LOURENS M 72 03:33:51 20.3 82 174
82 17642327 KRUGER DORET F 72 03:57:30 18.2 0 107
83 3029739 YORK ELMA F 72 04:05:36 17.6 72 111
84 22904230 KOLBE LUKAS M 23 00:59:10 22.8 84 169